When you browse on this site, cookies collect data to enhance your experience and personalize the content and advertising you see.
Visit our Privacy Policy to learn more. By continuing to use the site, you agree to this use of cookies and data.
  • în România
  • Lista ţărilor
  • Pe 7 zile
  • Temperatura apei
  • Hartă satelitară
  • Meteo pe hartă
  • Widget-uri
  • user-avatar
    Intrare

    Meteo pe oră la Latibrovo

    Astăzi, 19 Aprilie, Vineri

    Timp Temperatura Precipitaţii Vânt Presiune Umiditate
    00:00 +2°C° 0 mm 2 m/s 754 mmHg 90%
    01:00 +3°C° 0 mm 1 m/s 754 mmHg 91%
    02:00 +2°C° 0 mm 1 m/s 754 mmHg 91%
    03:00 +2°C° 0 mm 1 m/s 754 mmHg 91%
    04:00 +1°C° 0 mm 1 m/s 755 mmHg 91%
    05:00 +1°C° 0 mm 1 m/s 755 mmHg 91%
    06:00 +3°C° 0 mm 1 m/s 755 mmHg 81%
    07:00 +5°C° 0 mm 1 m/s 755 mmHg 70%
    08:00 +7°C° 0 mm 1 m/s 755 mmHg 60%
    09:00 +8°C° 0 mm 1 m/s 755 mmHg 54%
    10:00 +10°C° 0 mm 1 m/s 755 mmHg 48%
    11:00 +11°C° 0 mm 1 m/s 755 mmHg 42%
    12:00 +12°C° 0 mm 1 m/s 754 mmHg 40%
    13:00 +12°C° 0 mm 1 m/s 754 mmHg 38%
    14:00 +13°C° 0 mm 1 m/s 753 mmHg 36%
    15:00 +13°C° 0 mm 1 m/s 753 mmHg 37%
    16:00 +13°C° 0 mm 1 m/s 753 mmHg 38%
    17:00 +12°C° 0 mm 1 m/s 752 mmHg 38%
    18:00 +11°C° 0 mm 1 m/s 752 mmHg 44%
    19:00 +9°C° 0 mm 1 m/s 752 mmHg 49%
    20:00 +8°C° 0 mm 1 m/s 751 mmHg 55%
    21:00 +7°C° 0 mm 1 m/s 751 mmHg 57%
    22:00 +6°C° 0 mm 2 m/s 751 mmHg 59%
    23:00 +6°C° 0 mm 2 m/s 750 mmHg 62%

    Mâine, 20 Aprilie, Sâmbătă

    Timp Temperatura Precipitaţii Vânt Presiune Umiditate
    00:00 +6°C° 0.2 mm 2 m/s 750 mmHg 66%
    01:00 +6°C° 0.2 mm 2 m/s 750 mmHg 70%
    02:00 +5°C° 0.2 mm 2 m/s 750 mmHg 75%
    03:00 +5°C° 0.4 mm 2 m/s 749 mmHg 80%
    04:00 +5°C° 0.4 mm 2 m/s 749 mmHg 85%
    05:00 +5°C° 0.4 mm 2 m/s 749 mmHg 90%
    06:00 +5°C° 0.2 mm 2 m/s 749 mmHg 86%
    07:00 +6°C° 0.2 mm 2 m/s 749 mmHg 83%
    08:00 +7°C° 0.2 mm 3 m/s 749 mmHg 80%
    09:00 +8°C° 0.1 mm 2 m/s 749 mmHg 72%
    10:00 +9°C° 0.1 mm 2 m/s 749 mmHg 65%
    11:00 +10°C° 0.1 mm 2 m/s 749 mmHg 57%
    12:00 +10°C° 0.1 mm 2 m/s 749 mmHg 54%
    13:00 +10°C° 0.1 mm 2 m/s 749 mmHg 52%
    14:00 +10°C° 0.1 mm 2 m/s 749 mmHg 50%
    15:00 +10°C° 0.1 mm 2 m/s 749 mmHg 52%
    16:00 +10°C° 0.1 mm 2 m/s 749 mmHg 54%
    17:00 +10°C° 0.1 mm 2 m/s 749 mmHg 56%
    18:00 +8°C° 0 mm 2 m/s 749 mmHg 64%
    19:00 +6°C° 0 mm 2 m/s 749 mmHg 72%
    20:00 +5°C° 0 mm 2 m/s 750 mmHg 80%
    21:00 +4°C° 0 mm 2 m/s 750 mmHg 83%
    22:00 +4°C° 0 mm 2 m/s 750 mmHg 87%
    23:00 +3°C° 0 mm 2 m/s 750 mmHg 90%

    Poimâine, 21 Aprilie, Duminică

    Timp Temperatura Precipitaţii Vânt Presiune Umiditate
    00:00 +4°C° 0 mm 1 m/s 750 mmHg 92%
    01:00 +3°C° 0 mm 1 m/s 750 mmHg 94%
    02:00 +3°C° 0 mm 1 m/s 751 mmHg 96%
    03:00 +3°C° 0 mm 1 m/s 751 mmHg 96%
    04:00 +3°C° 0 mm 1 m/s 751 mmHg 96%
    05:00 +2°C° 0 mm 1 m/s 751 mmHg 96%
    06:00 +4°C° 0 mm 1 m/s 751 mmHg 89%
    07:00 +5°C° 0 mm 2 m/s 752 mmHg 82%
    08:00 +7°C° 0 mm 2 m/s 752 mmHg 76%
    09:00 +8°C° 0 mm 2 m/s 752 mmHg 69%
    10:00 +10°C° 0 mm 2 m/s 752 mmHg 63%
    11:00 +12°C° 0 mm 2 m/s 752 mmHg 57%
    12:00 +13°C° 0 mm 2 m/s 752 mmHg 56%
    13:00 +13°C° 0 mm 1 m/s 752 mmHg 55%
    14:00 +14°C° 0 mm 1 m/s 752 mmHg 54%
    15:00 +14°C° 0 mm 1 m/s 752 mmHg 54%
    16:00 +13°C° 0 mm 1 m/s 752 mmHg 55%
    17:00 +12°C° 0 mm 0 m/s 751 mmHg 55%
    18:00 +11°C° 0 mm 0 m/s 752 mmHg 62%
    19:00 +9°C° 0 mm 0 m/s 752 mmHg 69%
    20:00 +7°C° 0 mm 0 m/s 752 mmHg 77%
    21:00 +7°C° 0 mm 0 m/s 752 mmHg 79%
    22:00 +6°C° 0 mm 0 m/s 752 mmHg 81%
    23:00 +6°C° 0 mm 0 m/s 752 mmHg 84%

    22 Aprilie, Luni

    Timp Temperatura Precipitaţii Vânt Presiune Umiditate
    00:00 +5°C° 0 mm 0 m/s 753 mmHg 85%
    01:00 +5°C° 0 mm 0 m/s 753 mmHg 86%
    02:00 +5°C° 0 mm 0 m/s 753 mmHg 88%
    03:00 +5°C° 0 mm 0 m/s 753 mmHg 88%
    04:00 +5°C° 0 mm 1 m/s 753 mmHg 89%
    05:00 +5°C° 0 mm 1 m/s 753 mmHg 89%
    06:00 +8°C° 0 mm 1 m/s 753 mmHg 80%
    07:00 +10°C° 0 mm 1 m/s 754 mmHg 72%
    08:00 +12°C° 0 mm 1 m/s 754 mmHg 63%
    09:00 +13°C° 0 mm 1 m/s 754 mmHg 55%
    10:00 +15°C° 0 mm 1 m/s 754 mmHg 47%
    11:00 +16°C° 0 mm 1 m/s 754 mmHg 40%
    12:00 +18°C° 0 mm 1 m/s 753 mmHg 38%
    13:00 +17°C° 0 mm 2 m/s 753 mmHg 36%
    14:00 +17°C° 0 mm 2 m/s 753 mmHg 34%
    15:00 +17°C° 0 mm 2 m/s 753 mmHg 36%
    16:00 +18°C° 0 mm 1 m/s 752 mmHg 39%
    17:00 +16°C° 0 mm 1 m/s 752 mmHg 41%
    18:00 +15°C° 0 mm 1 m/s 752 mmHg 48%
    19:00 +13°C° 0 mm 1 m/s 752 mmHg 54%
    20:00 +11°C° 0 mm 1 m/s 753 mmHg 60%
    21:00 +10°C° 0 mm 1 m/s 753 mmHg 62%
    22:00 +9°C° 0 mm 1 m/s 753 mmHg 64%
    23:00 +9°C° 0 mm 1 m/s 753 mmHg 67%

    23 Aprilie, Marţi

    Timp Temperatura Precipitaţii Vânt Presiune Umiditate
    00:00 +8°C° 0 mm 1 m/s 753 mmHg 67%
    01:00 +8°C° 0 mm 1 m/s 753 mmHg 68%
    02:00 +8°C° 0 mm 1 m/s 754 mmHg 69%
    03:00 +7°C° 0 mm 1 m/s 754 mmHg 70%
    04:00 +6°C° 0 mm 2 m/s 754 mmHg 72%
    05:00 +6°C° 0 mm 2 m/s 754 mmHg 73%
    06:00 +8°C° 0 mm 2 m/s 754 mmHg 68%
    07:00 +10°C° 0 mm 2 m/s 754 mmHg 63%
    08:00 +13°C° 0 mm 2 m/s 754 mmHg 58%
    09:00 +15°C° 0 mm 2 m/s 754 mmHg 52%
    10:00 +16°C° 0 mm 3 m/s 754 mmHg 46%
    11:00 +18°C° 0 mm 3 m/s 754 mmHg 41%
    12:00 +18°C° 0 mm 3 m/s 754 mmHg 39%
    13:00 +18°C° 0 mm 3 m/s 754 mmHg 38%
    14:00 +19°C° 0 mm 3 m/s 754 mmHg 36%
    15:00 +18°C° 0 mm 3 m/s 754 mmHg 38%
    16:00 +18°C° 0 mm 2 m/s 754 mmHg 40%
    17:00 +18°C° 0 mm 2 m/s 753 mmHg 42%
    18:00 +16°C° 0 mm 2 m/s 753 mmHg 47%
    19:00 +14°C° 0 mm 1 m/s 753 mmHg 53%
    20:00 +12°C° 0 mm 1 m/s 754 mmHg 59%
    21:00 +11°C° 0 mm 1 m/s 754 mmHg 61%
    22:00 +11°C° 0 mm 1 m/s 754 mmHg 62%
    23:00 +10°C° 0 mm 1 m/s 754 mmHg 64%

    24 Aprilie, Miercuri

    Timp Temperatura Precipitaţii Vânt Presiune Umiditate
    00:00 +9°C° 0 mm 1 m/s 754 mmHg 65%
    01:00 +9°C° 0 mm 1 m/s 755 mmHg 67%
    02:00 +9°C° 0 mm 1 m/s 755 mmHg 68%
    03:00 +9°C° 0 mm 1 m/s 755 mmHg 68%
    04:00 +8°C° 0 mm 1 m/s 755 mmHg 69%
    05:00 +8°C° 0 mm 1 m/s 755 mmHg 69%
    06:00 +11°C° 0 mm 1 m/s 756 mmHg 63%
    07:00 +13°C° 0 mm 1 m/s 756 mmHg 56%
    08:00 +15°C° 0 mm 1 m/s 756 mmHg 49%
    09:00 +18°C° 0 mm 1 m/s 756 mmHg 44%
    10:00 +19°C° 0 mm 1 m/s 756 mmHg 39%
    11:00 +20°C° 0 mm 1 m/s 756 mmHg 35%
    12:00 +21°C° 0 mm 1 m/s 755 mmHg 34%
    13:00 +21°C° 0 mm 1 m/s 755 mmHg 33%
    14:00 +22°C° 0 mm 1 m/s 755 mmHg 31%
    15:00 +21°C° 0 mm 1 m/s 755 mmHg 33%
    16:00 +19°C° 0 mm 0 m/s 754 mmHg 34%
    17:00 +18°C° 0 mm 0 m/s 754 mmHg 36%
    18:00 +16°C° 0 mm 0 m/s 754 mmHg 41%
    19:00 +14°C° 0 mm 0 m/s 754 mmHg 46%
    20:00 +12°C° 0 mm 0 m/s 754 mmHg 51%
    21:00 +12°C° 0 mm 0 m/s 754 mmHg 53%
    22:00 +12°C° 0 mm 1 m/s 754 mmHg 56%
    23:00 +12°C° 0 mm 1 m/s 755 mmHg 58%
    Arată mai mult